Météo par heure à Juchowo

Ce jour, 20 Juin, Dimanche

Heure Température Précipitation Vent Pression Humidité
00:00 +23°C° 0 mm 2 m/s 746 mmHg 73%
01:00 +21°C° 0 mm 2 m/s 746 mmHg 75%
02:00 +21°C° 0 mm 2 m/s 746 mmHg 77%
03:00 +21°C° 0 mm 2 m/s 746 mmHg 79%
04:00 +20°C° 0 mm 2 m/s 745 mmHg 81%
05:00 +22°C° 0 mm 3 m/s 745 mmHg 76%
06:00 +23°C° 0 mm 4 m/s 745 mmHg 71%
07:00 +26°C° 0 mm 5 m/s 745 mmHg 66%
08:00 +27°C° 0 mm 5 m/s 745 mmHg 60%
09:00 +29°C° 0 mm 6 m/s 745 mmHg 54%
10:00 +32°C° 0 mm 6 m/s 745 mmHg 48%
11:00 +32°C° 0 mm 6 m/s 745 mmHg 46%
12:00 +33°C° 0 mm 6 m/s 745 mmHg 44%
13:00 +33°C° 0 mm 6 m/s 744 mmHg 41%
14:00 +33°C° 0 mm 6 m/s 744 mmHg 42%
15:00 +33°C° 0 mm 6 m/s 744 mmHg 42%
16:00 +33°C° 0 mm 6 m/s 743 mmHg 43%
17:00 +30°C° 0.2 mm 5 m/s 743 mmHg 50%
18:00 +29°C° 0.2 mm 4 m/s 743 mmHg 58%
19:00 +27°C° 0.2 mm 3 m/s 743 mmHg 65%
20:00 +25°C° 0.4 mm 3 m/s 743 mmHg 71%
21:00 +24°C° 0.4 mm 3 m/s 743 mmHg 77%
22:00 +22°C° 0.4 mm 3 m/s 743 mmHg 83%
23:00 +21°C° 0 mm 3 m/s 743 mmHg 85%

Demain, 21 Juin, Lundi

Heure Température Précipitation Vent Pression Humidité
00:00 +20°C° 0 mm 2 m/s 743 mmHg 86%
01:00 +20°C° 0 mm 2 m/s 743 mmHg 87%
02:00 +20°C° 0 mm 2 m/s 743 mmHg 88%
03:00 +19°C° 0 mm 2 m/s 743 mmHg 88%
04:00 +19°C° 0 mm 2 m/s 742 mmHg 89%
05:00 +21°C° 0 mm 3 m/s 743 mmHg 82%
06:00 +24°C° 0 mm 3 m/s 743 mmHg 74%
07:00 +25°C° 0 mm 4 m/s 743 mmHg 67%
08:00 +27°C° 0 mm 5 m/s 743 mmHg 61%
09:00 +28°C° 0 mm 5 m/s 742 mmHg 55%
10:00 +30°C° 0 mm 6 m/s 742 mmHg 49%
11:00 +32°C° 0 mm 6 m/s 742 mmHg 47%
12:00 +33°C° 0 mm 6 m/s 742 mmHg 44%
13:00 +33°C° 0 mm 5 m/s 742 mmHg 41%
14:00 +33°C° 0 mm 5 m/s 741 mmHg 41%
15:00 +33°C° 0 mm 4 m/s 741 mmHg 40%
16:00 +33°C° 0 mm 4 m/s 741 mmHg 40%
17:00 +29°C° 0.7 mm 4 m/s 741 mmHg 53%
18:00 +27°C° 0.7 mm 5 m/s 742 mmHg 67%
19:00 +23°C° 0.7 mm 5 m/s 743 mmHg 80%
20:00 +21°C° 0.4 mm 4 m/s 743 mmHg 86%
21:00 +20°C° 0.4 mm 3 m/s 743 mmHg 91%
22:00 +18°C° 0.4 mm 2 m/s 743 mmHg 97%
23:00 +18°C° 0.1 mm 2 m/s 743 mmHg 97%

Après-demain, 22 Juin, Mardi

Heure Température Précipitation Vent Pression Humidité
00:00 +17°C° 0.1 mm 2 m/s 743 mmHg 97%
01:00 +17°C° 0.1 mm 2 m/s 743 mmHg 96%
02:00 +16°C° 0 mm 2 m/s 743 mmHg 96%
03:00 +16°C° 0 mm 2 m/s 743 mmHg 96%
04:00 +16°C° 0 mm 2 m/s 743 mmHg 96%
05:00 +16°C° 0 mm 2 m/s 744 mmHg 92%
06:00 +17°C° 0 mm 3 m/s 744 mmHg 88%
07:00 +18°C° 0 mm 3 m/s 744 mmHg 84%
08:00 +20°C° 0 mm 3 m/s 745 mmHg 74%
09:00 +22°C° 0 mm 3 m/s 745 mmHg 65%
10:00 +25°C° 0 mm 3 m/s 745 mmHg 56%
11:00 +26°C° 0 mm 3 m/s 745 mmHg 53%
12:00 +27°C° 0 mm 3 m/s 745 mmHg 51%
13:00 +28°C° 0 mm 3 m/s 745 mmHg 48%
14:00 +28°C° 0 mm 3 m/s 746 mmHg 48%
15:00 +28°C° 0 mm 3 m/s 746 mmHg 48%
16:00 +28°C° 0 mm 3 m/s 746 mmHg 48%
17:00 +26°C° 0 mm 3 m/s 746 mmHg 54%
18:00 +25°C° 0 mm 3 m/s 746 mmHg 61%
19:00 +22°C° 0 mm 4 m/s 746 mmHg 67%
20:00 +20°C° 0 mm 3 m/s 746 mmHg 75%
21:00 +18°C° 0 mm 3 m/s 747 mmHg 84%
22:00 +14°C° 0 mm 3 m/s 747 mmHg 92%
23:00 +15°C° 0 mm 2 m/s 747 mmHg 93%

23 Juin, Mercredi

Heure Température Précipitation Vent Pression Humidité
00:00 +14°C° 0 mm 2 m/s 747 mmHg 94%
01:00 +14°C° 0 mm 2 m/s 748 mmHg 95%
02:00 +14°C° 0 mm 2 m/s 748 mmHg 93%
03:00 +14°C° 0 mm 2 m/s 748 mmHg 91%
04:00 +13°C° 0 mm 2 m/s 748 mmHg 89%
05:00 +15°C° 0 mm 2 m/s 748 mmHg 82%
06:00 +17°C° 0 mm 2 m/s 748 mmHg 74%
07:00 +18°C° 0 mm 2 m/s 748 mmHg 66%
08:00 +20°C° 0 mm 2 m/s 748 mmHg 62%
09:00 +22°C° 0 mm 3 m/s 748 mmHg 58%
10:00 +25°C° 0 mm 3 m/s 748 mmHg 54%
11:00 +26°C° 0 mm 3 m/s 748 mmHg 51%
12:00 +27°C° 0 mm 3 m/s 748 mmHg 49%
13:00 +28°C° 0 mm 3 m/s 748 mmHg 47%
14:00 +25°C° 0.2 mm 4 m/s 748 mmHg 57%
15:00 +22°C° 0.2 mm 5 m/s 748 mmHg 66%
16:00 +19°C° 0.2 mm 5 m/s 749 mmHg 76%
17:00 +17°C° 0.7 mm 5 m/s 749 mmHg 82%
18:00 +16°C° 0.7 mm 5 m/s 749 mmHg 88%
19:00 +15°C° 0.7 mm 4 m/s 749 mmHg 94%
20:00 +15°C° 0.1 mm 4 m/s 750 mmHg 95%
21:00 +16°C° 0.1 mm 3 m/s 750 mmHg 95%
22:00 +16°C° 0.1 mm 2 m/s 750 mmHg 96%
23:00 +15°C° 0 mm 2 m/s 750 mmHg 97%

24 Juin, Jeudi

Heure Température Précipitation Vent Pression Humidité
00:00 +15°C° 0 mm 2 m/s 750 mmHg 97%
01:00 +15°C° 0 mm 2 m/s 750 mmHg 97%
02:00 +14°C° 0 mm 2 m/s 750 mmHg 98%
03:00 +14°C° 0 mm 2 m/s 750 mmHg 98%
04:00 +14°C° 0 mm 2 m/s 750 mmHg 98%
05:00 +15°C° 0 mm 2 m/s 750 mmHg 94%
06:00 +16°C° 0 mm 2 m/s 750 mmHg 89%
07:00 +17°C° 0 mm 2 m/s 750 mmHg 85%
08:00 +19°C° 0 mm 2 m/s 750 mmHg 76%
09:00 +21°C° 0 mm 2 m/s 750 mmHg 67%
10:00 +24°C° 0 mm 2 m/s 750 mmHg 58%
11:00 +24°C° 0 mm 2 m/s 749 mmHg 58%
12:00 +24°C° 0 mm 2 m/s 749 mmHg 58%
13:00 +24°C° 0 mm 2 m/s 749 mmHg 59%
14:00 +21°C° 0.1 mm 3 m/s 749 mmHg 66%
15:00 +20°C° 0.1 mm 3 m/s 749 mmHg 73%
16:00 +18°C° 0.1 mm 4 m/s 749 mmHg 80%
17:00 +17°C° 0.3 mm 3 m/s 749 mmHg 85%
18:00 +17°C° 0.3 mm 3 m/s 749 mmHg 89%
19:00 +16°C° 0.3 mm 3 m/s 749 mmHg 93%
20:00 +16°C° 0.2 mm 2 m/s 749 mmHg 94%
21:00 +16°C° 0.2 mm 2 m/s 749 mmHg 95%
22:00 +15°C° 0.2 mm 2 m/s 749 mmHg 96%
23:00 +15°C° 0.4 mm 2 m/s 749 mmHg 96%

25 Juin, Vendredi

Heure Température Précipitation Vent Pression Humidité
00:00 +15°C° 0.4 mm 2 m/s 749 mmHg 96%
01:00 +15°C° 0.4 mm 2 m/s 749 mmHg 96%
02:00 +14°C° 0.1 mm 2 m/s 749 mmHg 95%
03:00 +14°C° 0.1 mm 2 m/s 749 mmHg 95%
04:00 +13°C° 0.1 mm 2 m/s 748 mmHg 94%
05:00 +14°C° 0 mm 2 m/s 748 mmHg 92%
06:00 +15°C° 0 mm 2 m/s 749 mmHg 89%
07:00 +15°C° 0 mm 2 m/s 749 mmHg 87%
08:00 +17°C° 0 mm 2 m/s 749 mmHg 77%
09:00 +19°C° 0 mm 2 m/s 749 mmHg 67%
10:00 +21°C° 0 mm 3 m/s 749 mmHg 58%
11:00 +21°C° 0.2 mm 3 m/s 749 mmHg 58%
12:00 +21°C° 0.2 mm 3 m/s 749 mmHg 58%
13:00 +21°C° 0.2 mm 3 m/s 749 mmHg 59%
14:00 +21°C° 0.1 mm 3 m/s 749 mmHg 58%
15:00 +23°C° 0.1 mm 2 m/s 748 mmHg 56%
16:00 +23°C° 0.1 mm 2 m/s 748 mmHg 55%
17:00 +21°C° 0 mm 2 m/s 748 mmHg 59%
18:00 +20°C° 0 mm 2 m/s 748 mmHg 63%
19:00 +20°C° 0 mm 1 m/s 748 mmHg 68%
20:00 +19°C° 0 mm 1 m/s 748 mmHg 71%
21:00 +16°C° 0 mm 1 m/s 748 mmHg 75%
22:00 +15°C° 0 mm 1 m/s 748 mmHg 79%
23:00 +14°C° 0 mm 1 m/s 749 mmHg 79%
Voir plus

Nous avons besoin de votre consentement

Meteoprog et ses fournisseurs de services peuvent stocker et accéder à des données personnelles telles que des cookies, des identifiants d'appareils ou d'autres technologies similaires sur votre appareil et traiter ces données pour personnaliser le contenu et les publicités, ainsi que pour fournir des fonctionnalités de médias sociaux et analyser le trafic.

  • Stocker et/ou accéder à des informations sur votre appareil

    Des cookies, des identifiants d'appareils ou d'autres informations peuvent être stockés ou accessibles sur votre appareil aux fins indiquées ci-dessus.

  • Annonces et contenus personnalisés, mesure des annonces et des contenus, connaissance de l'audience et développement de produits

    Les annonces et le contenu peuvent être personnalisés en fonction d'un profil. D'autres données peuvent être ajoutées pour mieux personnaliser les annonces et le contenu. Les performances des publicités et du contenu peuvent être mesurées. Il est possible d'obtenir des informations sur le public qui a vu les publicités et le contenu. Ces données peuvent être utilisées pour développer ou améliorer l'expérience de l'utilisateur, les systèmes et les logiciels.

En cliquant sur "J'accepte", vous autorisez l'utilisation de cookies, des identifiants d'appareils, des balises web ou d'autres technologies similaires. Vos paramètres peuvent être modifiés dans le navigateur de votre appareil.

Dans certains cas, des intérêts légitimes peuvent être invoqués plutôt qu'un consentement. Vous pouvez en savoir plus à ce sujet dans notre Politique de confidentialité et de cookies.